Location: Julian California
(33.0790°N, 116.6010°W)
Time: 09:21:29
(UTC-07:00)

OAO 2 Rocket - Pass Details

Date: 14 June 2018
Orbit: 676 x 746 km, 35.0° (Epoch: 20 June)

Event Time Altitude Azimuth Distance (km) Brightness Sun altitude
Rises 21:47:39 0° 283° (WNW) 3,172 7.6 -19.3°
Reaches altitude 10° 21:50:11 10° 277° (W) 2,249 6.6 -19.6°
Maximum altitude 21:55:15 46° 205° (SSW) 986 3.9 -20.3°
Enters shadow 21:56:23 40° 170° (S) 1,086 3.8 -20.5°
